Location: Zagreb
(45.8000°N, 16.0000°E)
Time: 08:51:43
(UTC+01:00)

SR - Visible Passes

Search period start: 26 October 2020 00:00
Search period end: 05 November 2020 00:00
Orbit: 581 x 874 km, 66.7° (Epoch: 25 October)

Date Brightness Start Highest point End Pass type
(mag) Time Alt. Az. Time Alt. Az. Time Alt. Az.
26 Oct ? 03:37:14 17° NNE 03:37:14 17° NNE 03:38:24 10° NNE visible
27 Oct ? 04:28:25 14° NNW 04:28:25 14° NNW 04:29:46 10° N visible
28 Oct ? 03:40:10 12° N 03:40:10 12° N 03:40:40 10° NNE visible
